DW4407 Weather Reports


Display with metric or nautical units.
time (UTC)temp
F
wind
direction
speed
MPH
gust
MPH
rain 1hr
in
rain 24hr
in
rain mn
in
humidity
%
barometer
mb
20260504044546 57 220 2.0 10.0 0.00 0.09 0.09 90 1011.5
20260504043054 57 269 2.0 10.0 0.00 0.09 0.09 90 1011.5
20260504041548 57 306 2.0 8.0 0.00 0.09 0.09 90 1011.3
20260504040047 57 305 1.0 8.0 0.00 0.09 0.09 90 1011.4
20260504034555 58 251 0.0 5.0 0.00 0.09 0.09 90 1011.1
20260504033044 59 248 1.0 10.0 0.00 0.09 0.09 90 1011.1
20260504031544 59 189 1.0 6.0 0.01 0.09 0.09 89 1011.3
20260504030040 59 318 1.0 9.0 0.01 0.09 0.09 90 1011.4
20260504024545 58 281 1.0 7.0 0.01 0.09 0.09 90 1011.7
20260504023036 58 270 1.0 5.0 0.01 0.09 0.09 91 1011.9
20260504021536 58 318 1.0 6.0 0.00 0.08 0.08 91 1012.2
20260504020037 58 232 1.0 10.0 0.00 0.08 0.08 91 1012.4
20260504014532 57 268 1.0 7.0 0.00 0.08 0.08 91 1012.8
20260504013035 57 271 3.0 9.0 0.00 0.08 0.08 91 1012.8
20260504011529 57 302 1.0 8.0 0.01 0.08 0.08 91 1012.9
20260504010027 57 286 1.0 9.0 0.01 0.08 0.08 90 1013.2
20260504004527 57 222 1.0 7.0 0.01 0.08 0.08 90 1013.2
20260504003026 57 36 2.0 7.0 0.01 0.08 0.08 90 1013.3
20260504001534 57 284 0.0 5.0 0.00 0.07 0.07 90 1013.4
20260504000024 57 263 0.0 4.0 0.00 0.07 0.07 90 1013.6
20260503234524 57 181 1.0 12.0 0.00 0.07 0.07 90 1013.6
20260503233023 57 334 0.0 11.0 0.00 0.07 0.07 90 1013.8
20260503231525 57 319 0.0 5.0 0.00 0.07 0.07 90 1013.8
20260503230037 57 118 0.0 3.0 0.00 0.07 0.07 90 1014.0
20260503224520 57 250 0.0 3.0 0.00 0.07 0.07 90 1013.9
20260503223020 57 263 0.0 5.0 0.01 0.07 0.07 90 1013.9
20260503221521 57 321 0.0 6.0 0.01 0.07 0.07 90 1013.9
20260503220018 57 302 0.0 2.0 0.01 0.08 0.07 90 1013.7
20260503214534 56 132 0.0 7.0 0.01 0.08 0.07 90 1013.7
20260503213016 56 254 0.0 6.0 0.00 0.07 0.06 90 1013.9
20260503211516 56 252 0.0 5.0 0.00 0.07 0.06 90 1013.6
20260503210014 56 128 0.0 2.0 0.00 0.07 0.06 90 1013.5
20260503204513 56 238 0.0 3.0 0.00 0.07 0.06 90 1013.4
20260503203014 56 317 0.0 1.0 0.00 0.07 0.06 90 1013.4
20260503201512 55 261 0.0 0.0 0.01 0.07 0.06 90 1013.4
20260503200013 55 261 0.0 0.0 0.01 0.07 0.06 91 1013.4
20260503194510 55 261 0.0 0.0 0.01 0.07 0.06 91 1013.1
20260503193016 55 261 0.0 4.0 0.01 0.07 0.06 91 1013.2
20260503191522 55 338 0.0 4.0 0.00 0.06 0.05 90 1013.2
20260503190018 55 290 0.0 4.0 0.00 0.06 0.05 90 1013.3
20260503184505 56 280 0.0 3.0 0.00 0.06 0.05 90 1013.5
20260503183003 56 266 0.0 7.0 0.00 0.06 0.05 90 1013.7
20260503181503 56 281 0.0 5.0 0.01 0.06 0.05 90 1013.6
20260503180005 56 267 0.0 7.0 0.01 0.06 0.05 90 1013.7
20260503174602 56 261 1.0 5.0 0.01 0.06 0.05 90 1014.0
20260503173104 56 94 0.0 3.0 0.01 0.06 0.05 90 1014.2
20260503171556 56 355 1.0 4.0 0.00 0.05 0.04 90 1014.3
20260503170106 56 251 0.0 4.0 0.00 0.05 0.04 90 1014.6
20260503081522 60 256 0.0 0.0 0.00 0.01 0.01 82 1016.5
20260503071514 63 256 0.0 0.0 0.00 0.01 0.01 76 1016.0